START_TIME,STEP,MOV.,M15,t_acc.,M20,t_acc.
1981-08-25 21:00:44.840 ,5,0,0.,24.0,0.,24.0
1981-08-25 21:01:08.840 ,6,1,0.,24.0,0.,24.0
1981-08-25 21:01:32.840 ,6,0,0.,24.0,0.,24.0
1981-08-25 21:01:56.840 ,7,1,0.,24.0,0.,24.0
1981-08-25 21:02:20.840 ,7,0,0.,24.0,0.,24.0
1981-08-25 21:02:44.840 ,7,1,0.,24.0,0.,24.0
1981-08-25 21:03:08.840 ,7,0,0.,24.0,0.,24.0
1981-08-25 21:03:32.840 ,6,1,0.,24.0,0.,24.0
1981-08-25 21:03:56.840 ,6,0,0.,24.0,0.,24.0
1981-08-25 21:04:20.840 ,5,1,0.,24.0,0.,24.0
1981-08-25 21:04:44.840 ,5,0,0.,24.0,0.,24.0
1981-08-25 21:05:08.830 ,4,1,0.,24.0,0.,24.0
1981-08-25 21:05:32.840 ,4,0,0.,24.0,0.,24.0
1981-08-25 21:05:56.840 ,3,1,0.,24.0,0.,24.0
1981-08-25 21:06:20.840 ,3,0,0.,24.0,0.,24.0
1981-08-25 21:06:44.840 ,2,1,0.,24.0,0.,24.0
1981-08-25 21:07:08.830 ,2,0,0.,24.0,0.,24.0
1981-08-25 21:07:32.840 ,1,1,0.,24.0,0.,24.0
1981-08-25 21:07:56.840 ,1,0,0.,24.0,0.,24.0
1981-08-25 21:08:20.840 ,0,1,0.,24.0,0.,24.0
1981-08-25 21:08:44.840 ,0,0,0.,24.0,0.,24.0
1981-08-25 21:09:08.840 ,0,1,0.,24.0,0.,24.0
1981-08-25 21:09:32.840 ,0,0,0.,24.0,0.,24.0
1981-08-25 21:09:56.840 ,1,1,0.,24.0,0.,24.0
1981-08-25 21:10:20.840 ,1,0,0.,24.0,0.,24.0
1981-08-25 21:10:44.840 ,2,1,0.,24.0,0.,24.0
1981-08-25 21:11:08.840 ,2,0,0.,24.0,0.,24.0
1981-08-25 21:11:32.840 ,3,1,0.,24.0,0.,24.0
1981-08-25 21:11:56.840 ,3,0,0.,24.0,0.,24.0
1981-08-25 21:12:20.840 ,4,1,0.,24.0,0.,24.0
1981-08-25 21:12:44.840 ,4,0,0.,24.0,0.,24.0
1981-08-25 21:13:08.840 ,5,1,0.,24.0,0.,24.0
1981-08-25 21:13:32.840 ,5,0,0.,24.0,0.,24.0
1981-08-25 21:13:56.830 ,6,1,0.,24.0,0.,24.0
1981-08-25 21:14:20.830 ,6,0,0.,24.0,0.,24.0
1981-08-25 21:14:44.830 ,7,1,0.,24.0,0.,24.0
1981-08-25 21:15:08.830 ,7,0,0.,24.0,0.,24.0
1981-08-25 21:15:32.830 ,7,1,0.,24.0,0.,24.0
1981-08-25 21:15:56.830 ,7,0,0.,24.0,0.,24.0
1981-08-25 21:16:20.830 ,6,1,0.,24.0,0.,24.0
1981-08-25 21:16:44.830 ,6,0,0.,24.0,0.,24.0
1981-08-25 21:17:08.830 ,5,1,0.,24.0,0.,24.0
1981-08-25 21:17:32.830 ,5,0,0.,24.0,0.,24.0
1981-08-25 21:17:56.830 ,4,1,0.,24.0,0.,24.0
1981-08-25 21:18:20.830 ,4,0,0.,24.0,0.,24.0
1981-08-25 21:18:44.830 ,3,1,0.,24.0,0.,24.0
1981-08-25 21:19:08.830 ,3,0,0.,24.0,0.,24.0
1981-08-25 21:19:32.830 ,2,1,0.,24.0,0.,24.0
1981-08-25 21:19:56.830 ,2,0,0.,24.0,0.,24.0
1981-08-25 21:20:20.830 ,1,1,0.,24.0,0.,24.0
1981-08-25 21:20:44.830 ,1,0,0.,24.0,0.,24.0
1981-08-25 21:21:08.830 ,0,1,0.,24.0,0.,24.0
1981-08-25 21:21:32.830 ,0,0,0.,24.0,0.,24.0
1981-08-25 21:21:56.830 ,0,1,0.,24.0,0.,24.0
1981-08-25 21:22:20.830 ,0,0,0.,24.0,0.,24.0
1981-08-25 21:22:44.830 ,1,1,0.,24.0,0.,24.0
1981-08-25 21:23:08.830 ,1,0,0.,24.0,0.,24.0
1981-08-25 21:23:32.830 ,2,1,0.,24.0,0.,24.0
1981-08-25 21:23:56.830 ,2,0,0.,24.0,0.,24.0
1981-08-25 21:24:20.830 ,3,1,0.,24.0,0.,24.0
1981-08-25 21:24:44.830 ,3,0,0.,24.0,0.,24.0
1981-08-25 21:25:08.830 ,4,1,0.,24.0,0.,24.0
1981-08-25 21:25:32.830 ,4,0,0.,24.0,0.,24.0
1981-08-25 21:25:56.830 ,5,1,0.,24.0,0.,24.0
1981-08-25 21:26:20.830 ,5,0,0.,24.0,0.,24.0
1981-08-25 21:26:44.830 ,6,1,0.,24.0,0.,24.0
1981-08-25 21:27:08.830 ,6,0,0.,24.0,0.,24.0
1981-08-25 21:27:32.830 ,7,1,0.,24.0,0.,24.0
1981-08-25 21:27:56.830 ,7,0,0.,24.0,0.,24.0
1981-08-25 21:28:20.830 ,7,1,0.,24.0,0.,24.0
1981-08-25 21:28:44.830 ,7,0,0.,24.0,0.,24.0
1981-08-25 21:29:08.830 ,0,0,,0,,0
1981-08-25 21:29:32.830 ,0,0,0.,24.0,0.,24.0
1981-08-25 21:29:56.830 ,5,1,0.,24.0,0.,24.0
1981-08-25 21:30:20.830 ,5,0,0.,24.0,0.,24.0
1981-08-25 21:30:44.830 ,4,1,0.,24.0,0.,24.0
1981-08-25 21:31:08.830 ,4,0,0.,24.0,0.,24.0
1981-08-25 21:31:32.830 ,3,1,0.,24.0,0.,24.0
1981-08-25 21:31:56.830 ,3,0,0.,24.0,0.,24.0
1981-08-25 21:32:20.830 ,2,1,0.,24.0,0.,24.0
1981-08-25 21:32:44.830 ,2,0,0.,24.0,0.,24.0
1981-08-25 21:33:08.830 ,1,1,0.,24.0,0.,24.0
1981-08-25 21:33:32.830 ,0,0,,0,,0
1981-08-25 21:34:01.630 ,0,0,0.,24.0,0.,24.0
1981-08-25 21:34:20.830 ,0,0,0.,24.0,0.,24.0
1981-08-25 21:34:44.830 ,0,1,0.,24.0,0.,24.0
1981-08-25 21:35:08.830 ,0,0,0.,24.0,0.,24.0
1981-08-25 21:35:32.830 ,1,1,0.,24.0,0.,24.0
1981-08-25 21:35:56.830 ,1,0,0.,24.0,0.,24.0
1981-08-25 21:36:20.830 ,2,1,0.,24.0,0.,24.0
1981-08-25 21:36:44.830 ,2,0,0.,24.0,0.,24.0
1981-08-25 21:37:08.830 ,3,1,0.,24.0,0.,24.0
1981-08-25 21:37:32.830 ,3,0,0.,24.0,0.,24.0
1981-08-25 21:37:56.830 ,4,1,0.,24.0,0.,24.0
1981-08-25 21:38:20.830 ,4,0,0.,24.0,0.,24.0
1981-08-25 21:38:44.830 ,5,1,0.,24.0,0.,24.0
1981-08-25 21:39:08.830 ,5,0,0.,24.0,0.,24.0
1981-08-25 21:39:32.830 ,6,1,0.,24.0,0.,24.0
1981-08-25 21:39:56.830 ,6,0,0.,24.0,0.,24.0
1981-08-25 21:40:20.830 ,7,1,0.,24.0,0.,24.0
1981-08-25 21:40:44.830 ,7,0,0.,24.0,0.,24.0
1981-08-25 21:41:08.830 ,7,1,0.,24.0,0.,24.0
1981-08-25 21:41:32.830 ,7,0,0.,24.0,0.,24.0
1981-08-25 21:41:56.830 ,6,1,0.,24.0,0.,24.0
1981-08-25 21:42:20.830 ,6,0,0.,24.0,0.,24.0
1981-08-25 21:42:44.830 ,5,1,0.,24.0,0.,24.0
1981-08-25 21:43:08.830 ,5,0,0.,24.0,0.,24.0
1981-08-25 21:43:32.830 ,4,1,0.,24.0,0.,24.0
1981-08-25 21:43:56.830 ,4,0,0.,24.0,0.,24.0
1981-08-25 21:44:20.830 ,3,1,0.,24.0,0.,24.0
1981-08-25 21:44:44.830 ,3,0,0.,24.0,0.,24.0
1981-08-25 21:45:08.830 ,2,1,0.,24.0,0.,24.0
1981-08-25 21:45:32.830 ,2,0,0.,24.0,0.,24.0
1981-08-25 21:45:56.830 ,1,1,0.,24.0,0.,24.0
1981-08-25 21:46:20.830 ,1,0,0.,24.0,0.,24.0
1981-08-25 21:46:44.830 ,0,1,0.,24.0,0.,24.0
1981-08-25 21:47:08.830 ,0,0,0.,24.0,0.,24.0
1981-08-25 21:47:32.830 ,0,1,0.,24.0,0.,24.0
1981-08-25 21:47:56.830 ,0,0,0.,24.0,0.,24.0
1981-08-25 21:48:20.830 ,1,1,0.,24.0,0.,24.0
1981-08-25 21:48:44.830 ,1,0,0.,24.0,0.,24.0
1981-08-25 21:49:08.830 ,2,1,0.,24.0,0.,24.0
1981-08-25 21:49:32.830 ,2,0,0.,24.0,0.,24.0
1981-08-25 21:49:56.830 ,3,1,0.,24.0,0.,24.0
1981-08-25 21:50:20.830 ,3,0,0.,24.0,0.,24.0
1981-08-25 21:50:44.830 ,4,1,0.,24.0,0.,24.0
1981-08-25 21:51:08.830 ,4,0,0.,24.0,0.,24.0
1981-08-25 21:51:32.830 ,5,1,0.,24.0,0.,24.0
1981-08-25 21:51:56.830 ,5,0,0.,24.0,0.,24.0
1981-08-25 21:52:20.830 ,6,1,0.,24.0,0.,24.0
1981-08-25 21:52:44.830 ,6,0,0.,24.0,0.,24.0
1981-08-25 21:53:08.830 ,7,1,0.,24.0,0.,24.0
1981-08-25 21:53:32.830 ,7,0,0.,24.0,0.,24.0
1981-08-25 21:53:56.830 ,7,1,0.,24.0,0.,24.0
1981-08-25 21:54:20.830 ,7,0,0.,24.0,0.,24.0
1981-08-25 21:54:44.830 ,6,1,0.,24.0,0.,24.0
1981-08-25 21:55:08.830 ,6,0,0.,24.0,0.,24.0
1981-08-25 21:55:32.830 ,5,1,0.,24.0,0.,24.0
1981-08-25 21:55:56.830 ,5,0,0.,24.0,0.,24.0
1981-08-25 21:56:20.830 ,4,1,0.,24.0,0.,24.0
1981-08-25 21:56:44.830 ,4,0,0.,24.0,0.,24.0
1981-08-25 21:57:08.830 ,3,1,0.,24.0,0.,24.0
1981-08-25 21:57:32.830 ,3,0,0.,24.0,0.,24.0
1981-08-25 21:57:56.830 ,2,1,0.,24.0,0.,24.0
1981-08-25 21:58:20.830 ,2,0,0.,24.0,0.,24.0
1981-08-25 21:58:44.830 ,1,1,0.,24.0,0.,24.0
1981-08-25 21:59:08.830 ,1,0,0.,24.0,0.,24.0
1981-08-25 21:59:32.830 ,0,1,0.,24.0,0.,24.0
1981-08-25 21:59:56.830 ,0,0,0.,24.0,0.,24.0
1981-08-25 22:00:20.830 ,0,1,0.,24.0,0.,24.0
1981-08-25 22:00:44.830 ,0,0,0.,24.0,0.,24.0
1981-08-25 22:01:08.830 ,1,1,0.,24.0,0.,24.0
1981-08-25 22:01:32.830 ,1,0,0.,24.0,0.,24.0
1981-08-25 22:01:56.830 ,2,1,0.,24.0,0.,24.0
1981-08-25 22:02:20.830 ,2,0,0.,24.0,0.,24.0
1981-08-25 22:02:44.830 ,3,1,0.,24.0,0.,24.0
1981-08-25 22:03:08.830 ,3,0,0.,24.0,0.,24.0
1981-08-25 22:03:32.830 ,4,1,0.,24.0,0.,24.0
1981-08-25 22:03:56.830 ,4,0,0.,24.0,0.,24.0
1981-08-25 22:04:20.830 ,5,1,0.,24.0,0.,24.0
1981-08-25 22:04:44.830 ,5,0,0.,24.0,0.,24.0
1981-08-25 22:05:08.830 ,6,1,0.,24.0,0.,24.0
1981-08-25 22:05:32.830 ,6,0,0.,24.0,0.,24.0
1981-08-25 22:05:56.830 ,7,1,0.,24.0,0.,24.0
1981-08-25 22:06:20.830 ,7,0,0.,24.0,0.,24.0
1981-08-25 22:06:44.830 ,7,1,0.,24.0,0.,24.0
1981-08-25 22:07:08.830 ,7,0,0.,24.0,0.,24.0
1981-08-25 22:07:32.830 ,6,1,0.,24.0,0.,24.0
1981-08-25 22:07:56.830 ,6,0,0.,24.0,0.,24.0
1981-08-25 22:08:20.830 ,5,1,0.,24.0,0.,24.0
1981-08-25 22:08:44.830 ,5,0,0.,24.0,0.,24.0
1981-08-25 22:09:08.830 ,4,1,0.,24.0,0.,24.0
1981-08-25 22:09:32.830 ,4,0,0.,24.0,0.,24.0
1981-08-25 22:09:56.830 ,3,1,0.,24.0,0.,24.0
1981-08-25 22:10:20.830 ,3,0,0.,24.0,0.,24.0
1981-08-25 22:10:44.830 ,2,1,0.,24.0,0.,24.0
1981-08-25 22:11:08.830 ,2,0,0.,24.0,0.,24.0
1981-08-25 22:11:32.830 ,1,1,0.,24.0,0.,24.0
1981-08-25 22:11:56.830 ,1,0,0.,24.0,0.,24.0
1981-08-25 22:12:20.830 ,0,1,0.,24.0,0.,24.0
1981-08-25 22:12:44.830 ,0,0,0.,24.0,0.,24.0
1981-08-25 22:13:08.830 ,0,1,0.,24.0,0.,24.0
1981-08-25 22:13:32.830 ,0,0,0.,24.0,0.,24.0
1981-08-25 22:13:56.830 ,1,1,0.,24.0,0.,24.0
1981-08-25 22:14:20.830 ,1,0,0.,24.0,0.,24.0
1981-08-25 22:14:44.830 ,2,1,0.,24.0,0.,24.0
1981-08-25 22:15:08.830 ,2,0,0.,24.0,0.,24.0
1981-08-25 22:15:32.830 ,3,1,0.,24.0,0.,24.0
1981-08-25 22:15:56.830 ,3,0,0.,24.0,0.,24.0
1981-08-25 22:16:20.830 ,4,1,0.,24.0,0.,24.0
1981-08-25 22:16:44.830 ,4,0,0.,24.0,0.,24.0
1981-08-25 22:17:08.830 ,5,1,0.,24.0,0.,24.0
1981-08-25 22:17:32.830 ,5,0,0.,24.0,0.,24.0
1981-08-25 22:17:56.830 ,6,1,0.,24.0,0.,24.0
1981-08-25 22:18:20.830 ,6,0,0.,24.0,0.,24.0
1981-08-25 22:18:44.830 ,7,1,0.,24.0,0.,24.0
1981-08-25 22:19:08.830 ,7,0,0.,24.0,0.,24.0
1981-08-25 22:19:32.830 ,7,1,0.,24.0,0.,24.0
1981-08-25 22:19:56.830 ,7,0,0.,24.0,0.,24.0
1981-08-25 22:20:20.830 ,6,1,0.,24.0,0.,24.0
1981-08-25 22:20:44.830 ,6,0,0.,24.0,0.,24.0
1981-08-25 22:21:08.830 ,5,1,0.,24.0,0.,24.0
1981-08-25 22:21:32.830 ,5,0,0.,24.0,0.,24.0
1981-08-25 22:21:56.830 ,4,1,0.,24.0,0.,24.0
1981-08-25 22:22:20.830 ,4,0,0.,24.0,0.,24.0
1981-08-25 22:22:44.830 ,3,1,0.,24.0,0.,24.0
1981-08-25 22:23:08.830 ,3,0,0.,24.0,0.,24.0
1981-08-25 22:24:20.830 ,0,0,0.,24.0,0.,24.0
1981-08-25 22:24:44.830 ,0,0,0.,24.0,0.,24.0
1981-08-25 22:25:08.830 ,0,1,0.,24.0,0.,24.0
1981-08-25 22:25:32.830 ,0,0,0.,24.0,0.,24.0
1981-08-25 22:25:56.830 ,0,1,0.,24.0,0.,24.0
1981-08-25 22:26:20.830 ,0,0,0.,24.0,0.,24.0
1981-08-25 22:26:44.830 ,1,1,0.,24.0,0.,24.0
1981-08-25 22:27:08.830 ,1,0,0.,24.0,0.,24.0
1981-08-25 22:27:32.830 ,2,1,0.,24.0,0.,24.0
1981-08-25 22:27:56.830 ,2,0,0.,24.0,0.,24.0
1981-08-25 22:28:20.830 ,3,1,0.,24.0,0.,24.0
1981-08-25 22:28:44.830 ,3,0,0.,24.0,0.,24.0
1981-08-25 22:29:08.830 ,4,1,0.,24.0,0.,24.0
1981-08-25 22:29:32.830 ,4,0,0.,24.0,0.,24.0
1981-08-25 22:29:56.830 ,5,1,0.,24.0,0.,24.0
1981-08-25 22:30:20.830 ,5,0,0.,24.0,0.,24.0
1981-08-25 22:30:44.830 ,6,1,0.,24.0,0.,24.0
1981-08-25 22:31:08.830 ,6,0,0.,24.0,0.,24.0
1981-08-25 22:31:32.830 ,7,1,0.,24.0,0.,24.0
1981-08-25 22:31:56.830 ,7,0,0.,24.0,0.,24.0
1981-08-25 22:32:20.830 ,7,1,0.,24.0,0.,24.0
1981-08-25 22:32:44.830 ,7,0,0.,24.0,0.,24.0
1981-08-25 22:33:56.830 ,0,0,0.,24.0,0.,24.0
1981-08-25 22:34:20.830 ,0,0,0.,24.0,0.,24.0
1981-08-25 22:34:44.830 ,4,1,0.,24.0,0.,24.0
1981-08-25 22:35:08.830 ,4,0,0.,24.0,0.,24.0
1981-08-25 22:35:32.830 ,3,1,0.,24.0,0.,24.0
1981-08-25 22:35:56.830 ,3,0,0.,24.0,0.,24.0
1981-08-25 22:36:20.830 ,2,1,0.,24.0,0.,24.0
1981-08-25 22:36:44.830 ,2,0,0.,24.0,0.,24.0
1981-08-25 22:37:08.830 ,1,1,0.,24.0,0.,24.0
1981-08-25 22:37:32.830 ,1,0,0.,24.0,0.,24.0
1981-08-25 22:37:56.830 ,0,1,0.,24.0,0.,24.0
1981-08-25 22:38:20.830 ,0,0,0.,24.0,0.,24.0
1981-08-25 22:38:44.830 ,0,1,0.,24.0,0.,24.0
1981-08-25 22:39:08.830 ,0,0,0.,24.0,0.,24.0
1981-08-25 22:39:32.830 ,1,1,0.,24.0,0.,24.0
1981-08-25 22:39:56.830 ,1,0,0.,24.0,0.,24.0
1981-08-25 22:40:20.830 ,2,1,0.,24.0,0.,24.0
1981-08-25 22:40:44.830 ,2,0,0.,24.0,0.,24.0
1981-08-25 22:41:08.830 ,3,1,0.,24.0,0.,24.0
1981-08-25 22:41:32.830 ,3,0,0.,24.0,0.,24.0
1981-08-25 22:41:56.830 ,4,1,0.,24.0,0.,24.0
1981-08-25 22:42:20.830 ,4,0,0.,24.0,0.,24.0
1981-08-25 22:42:44.830 ,5,1,0.,24.0,0.,24.0
1981-08-25 22:43:08.830 ,5,0,0.,24.0,0.,24.0
1981-08-25 22:43:32.830 ,6,1,0.,24.0,0.,24.0
1981-08-25 22:43:56.830 ,6,0,0.,24.0,0.,24.0
1981-08-25 22:44:20.830 ,7,1,0.,24.0,0.,24.0
1981-08-25 22:44:44.830 ,7,0,0.,24.0,0.,24.0
1981-08-25 22:45:08.830 ,7,1,0.,24.0,0.,24.0
1981-08-25 22:45:32.830 ,7,0,0.,24.0,0.,24.0
1981-08-25 22:45:56.830 ,6,1,0.,24.0,0.,24.0
1981-08-25 22:46:20.830 ,6,0,0.,24.0,0.,24.0
1981-08-25 22:46:44.830 ,5,1,0.,24.0,0.,24.0
1981-08-25 22:47:08.830 ,5,0,0.,24.0,0.,24.0
1981-08-25 22:47:32.830 ,4,1,0.,24.0,0.,24.0
1981-08-25 22:47:56.830 ,4,0,0.,24.0,0.,24.0
1981-08-25 22:48:20.830 ,3,1,0.,24.0,0.,24.0
1981-08-25 22:48:44.830 ,3,0,0.,24.0,0.,24.0
1981-08-25 22:49:08.830 ,2,1,0.,24.0,0.,24.0
1981-08-25 22:49:32.830 ,2,0,0.,24.0,0.,24.0
1981-08-25 22:49:56.830 ,1,1,0.,24.0,0.,24.0
1981-08-25 22:50:20.830 ,1,0,0.,24.0,0.,24.0
1981-08-25 22:50:44.830 ,0,1,0.,24.0,0.,24.0
1981-08-25 22:51:08.830 ,0,0,0.,24.0,0.,24.0
1981-08-25 22:51:32.830 ,0,1,0.,24.0,0.,24.0
1981-08-25 22:51:56.830 ,0,0,0.,24.0,0.,24.0
1981-08-25 22:52:20.830 ,1,1,0.,24.0,0.,24.0
1981-08-25 22:52:44.830 ,1,0,0.,24.0,0.,24.0
1981-08-25 22:53:08.830 ,2,1,0.,24.0,0.,24.0
1981-08-25 22:53:32.830 ,2,0,0.,24.0,0.,24.0
1981-08-25 22:53:56.830 ,3,1,0.,24.0,0.,24.0
1981-08-25 22:54:20.830 ,3,0,0.,24.0,0.,24.0
1981-08-25 22:54:44.830 ,4,1,0.,24.0,0.,24.0
1981-08-25 22:55:08.830 ,4,0,0.,24.0,0.,24.0
1981-08-25 22:55:32.830 ,5,1,0.,24.0,0.,24.0
1981-08-25 22:55:56.830 ,5,0,0.,24.0,0.,24.0
1981-08-25 22:56:20.830 ,6,1,0.,24.0,0.,24.0
1981-08-25 22:56:44.830 ,6,0,0.,24.0,0.,24.0
1981-08-25 22:57:08.830 ,7,1,0.,24.0,0.,24.0
1981-08-25 22:57:32.830 ,7,0,0.,24.0,0.,24.0
1981-08-25 22:57:56.830 ,7,1,0.,24.0,0.,24.0
1981-08-25 22:58:20.830 ,7,0,0.,24.0,0.,24.0
1981-08-25 22:58:44.830 ,6,1,0.,24.0,0.,24.0
1981-08-25 22:59:08.830 ,6,0,0.,24.0,0.,24.0
1981-08-25 22:59:32.830 ,5,1,0.,24.0,0.,24.0
1981-08-25 22:59:56.830 ,5,0,0.,24.0,0.,24.0
1981-08-25 23:00:20.830 ,4,1,0.,24.0,0.,24.0
1981-08-25 23:00:44.830 ,4,0,0.,24.0,0.,24.0
1981-08-25 23:01:08.830 ,3,1,0.,24.0,0.,24.0
1981-08-25 23:01:32.830 ,3,0,0.,24.0,0.,24.0
1981-08-25 23:01:56.830 ,2,1,0.,24.0,0.,24.0
1981-08-25 23:02:20.830 ,2,0,0.,24.0,0.,24.0
1981-08-25 23:02:44.830 ,1,1,0.,24.0,0.,24.0
1981-08-25 23:03:08.830 ,1,0,0.,24.0,0.,24.0
1981-08-25 23:03:32.830 ,0,1,0.,24.0,0.,24.0
1981-08-25 23:03:56.830 ,0,0,0.,24.0,0.,24.0
1981-08-25 23:04:20.830 ,0,1,0.,24.0,0.,24.0
1981-08-25 23:04:44.830 ,0,0,0.,24.0,0.,24.0
1981-08-25 23:05:08.830 ,1,1,0.,24.0,0.,24.0
1981-08-25 23:05:32.830 ,1,0,0.,24.0,0.,24.0
1981-08-25 23:05:56.830 ,2,1,0.,24.0,0.,24.0
1981-08-25 23:06:20.830 ,2,0,0.,24.0,0.,24.0
1981-08-25 23:06:44.830 ,3,1,0.,24.0,0.,24.0
1981-08-25 23:07:08.830 ,3,0,0.,24.0,0.,24.0
1981-08-25 23:07:32.830 ,4,1,0.,24.0,0.,24.0
1981-08-25 23:07:56.830 ,4,0,0.,24.0,0.,24.0
1981-08-25 23:08:20.830 ,5,1,0.,24.0,0.,24.0
1981-08-25 23:08:44.830 ,5,0,0.,24.0,0.,24.0
1981-08-25 23:09:08.830 ,6,1,0.,24.0,0.,24.0
1981-08-25 23:09:32.830 ,6,0,0.,24.0,0.,24.0
1981-08-25 23:09:56.830 ,7,1,0.,24.0,0.,24.0
1981-08-25 23:10:20.830 ,7,0,0.,24.0,0.,24.0
1981-08-25 23:10:44.830 ,7,1,0.,24.0,0.,24.0
1981-08-25 23:11:08.830 ,7,0,0.,24.0,0.,24.0
1981-08-25 23:11:32.830 ,6,1,0.,24.0,0.,24.0
1981-08-25 23:11:56.830 ,6,0,0.,24.0,0.,24.0
1981-08-25 23:12:20.830 ,5,1,0.,24.0,0.,24.0
1981-08-25 23:12:44.830 ,5,0,0.,24.0,0.,24.0
1981-08-25 23:13:08.830 ,4,1,0.,24.0,0.,24.0
1981-08-25 23:13:32.830 ,4,0,0.,24.0,0.,24.0
1981-08-25 23:13:56.830 ,3,1,0.,24.0,0.,24.0
1981-08-25 23:14:20.830 ,3,0,0.,24.0,0.,24.0
1981-08-25 23:14:44.830 ,2,1,0.,24.0,0.,24.0
1981-08-25 23:15:08.830 ,2,0,0.,24.0,0.,24.0
1981-08-25 23:15:32.830 ,1,1,0.,24.0,0.,24.0
1981-08-25 23:15:56.830 ,1,0,0.,24.0,0.,24.0
1981-08-25 23:16:20.830 ,0,1,0.,24.0,0.,24.0
1981-08-25 23:16:44.830 ,0,0,0.,24.0,0.,24.0
1981-08-25 23:17:08.830 ,0,1,0.,24.0,0.,24.0
1981-08-25 23:17:32.830 ,0,0,0.,24.0,0.,24.0
1981-08-25 23:17:56.830 ,1,1,0.,24.0,0.,24.0
1981-08-25 23:18:20.830 ,1,0,0.,24.0,0.,24.0
1981-08-25 23:18:44.830 ,2,1,0.,24.0,0.,24.0
1981-08-25 23:19:08.830 ,2,0,0.,24.0,0.,24.0
1981-08-25 23:19:32.830 ,3,1,0.,24.0,0.,24.0
1981-08-25 23:19:56.830 ,3,0,0.,24.0,0.,24.0
1981-08-25 23:20:20.830 ,0,0,0.,24.0,0.,24.0
1981-08-25 23:20:44.830 ,0,0,0.,24.0,0.,24.0
1981-08-25 23:21:08.830 ,0,0,0.,24.0,0.,24.0
1981-08-25 23:21:32.830 ,0,0,0.,24.0,0.,24.0
1981-08-25 23:21:56.830 ,0,0,0.,24.0,0.,24.0
1981-08-25 23:22:20.830 ,0,0,0.,24.0,0.,24.0
1981-08-25 23:22:44.830 ,0,0,0.,24.0,0.,24.0
1981-08-25 23:23:08.830 ,0,0,0.,24.0,0.,24.0
1981-08-25 23:23:32.830 ,0,0,0.,24.0,0.,24.0
1981-08-25 23:23:56.830 ,0,0,0.,24.0,0.,24.0
1981-08-25 23:27:01.030 ,0,0,0.,24.0,0.,24.0
1981-08-25 23:27:08.830 ,0,0,0.,24.0,0.,24.0
1981-08-25 23:27:32.830 ,0,0,0.,24.0,0.,24.0
1981-08-25 23:27:56.830 ,0,0,0.,24.0,0.,24.0
1981-08-25 23:28:20.830 ,0,0,0.,24.0,0.,24.0
1981-08-25 23:28:44.830 ,0,0,0.,24.0,0.,24.0
1981-08-25 23:29:08.830 ,0,0,0.,24.0,0.,24.0
1981-08-25 23:29:32.830 ,0,0,0.,24.0,0.,24.0
1981-08-25 23:29:56.830 ,0,0,0.,24.0,0.,24.0
1981-08-25 23:30:20.830 ,0,0,0.,24.0,0.,24.0
1981-08-25 23:30:44.830 ,0,0,0.,24.0,0.,24.0
1981-08-25 23:31:08.830 ,0,0,0.,24.0,0.,24.0
1981-08-25 23:31:32.830 ,0,0,0.,24.0,0.,24.0
1981-08-25 23:31:56.830 ,0,0,0.,24.0,0.,24.0
1981-08-25 23:32:20.830 ,0,0,0.,24.0,0.,24.0
1981-08-25 23:32:44.830 ,0,0,0.,24.0,0.,24.0
1981-08-25 23:33:08.830 ,0,0,0.,24.0,0.,24.0
1981-08-25 23:33:32.830 ,0,0,0.,24.0,0.,24.0
1981-08-25 23:33:56.830 ,0,0,0.,24.0,0.,24.0
1981-08-25 23:34:20.830 ,0,0,0.,24.0,0.,24.0
1981-08-25 23:34:44.830 ,0,0,0.,24.0,0.,24.0
1981-08-25 23:35:08.830 ,0,0,0.,24.0,0.,24.0
1981-08-25 23:35:32.830 ,0,0,0.,24.0,0.,24.0
1981-08-25 23:35:56.830 ,0,0,0.,24.0,0.,24.0
1981-08-25 23:36:20.830 ,0,0,0.,24.0,0.,24.0
1981-08-25 23:36:44.830 ,0,0,0.,24.0,0.,24.0
1981-08-25 23:37:08.830 ,0,0,0.,24.0,0.,24.0
1981-08-25 23:37:32.830 ,0,0,0.,24.0,0.,24.0
1981-08-25 23:37:56.830 ,0,0,0.,24.0,0.,24.0
1981-08-25 23:38:20.830 ,0,0,0.,24.0,0.,24.0
1981-08-25 23:38:44.830 ,0,0,0.,24.0,0.,24.0
1981-08-25 23:39:08.830 ,0,0,0.,24.0,0.,24.0
1981-08-25 23:39:32.830 ,0,0,0.,24.0,0.,24.0
1981-08-25 23:39:56.830 ,0,0,0.,24.0,0.,24.0
1981-08-25 23:40:20.830 ,0,0,0.,24.0,0.,24.0
1981-08-25 23:40:44.830 ,0,0,0.,24.0,0.,24.0
1981-08-25 23:41:08.830 ,0,0,0.,24.0,0.,24.0
1981-08-25 23:41:32.830 ,0,0,0.,24.0,0.,24.0
1981-08-25 23:41:56.830 ,0,0,0.,24.0,0.,24.0
1981-08-25 23:42:20.830 ,0,0,0.,24.0,0.,24.0
1981-08-25 23:42:44.830 ,0,0,0.,24.0,0.,24.0
1981-08-25 23:43:08.830 ,0,0,0.,24.0,0.,24.0
1981-08-25 23:43:32.820 ,3,1,0.,24.0,0.,24.0
1981-08-25 23:43:56.820 ,3,0,0.,24.0,0.,24.0
1981-08-25 23:44:20.820 ,4,1,0.,24.0,0.,24.0
1981-08-25 23:44:44.820 ,4,0,0.,24.0,0.,24.0
1981-08-25 23:45:08.820 ,5,1,0.,24.0,0.,24.0
1981-08-25 23:45:32.820 ,5,0,0.,24.0,0.,24.0
1981-08-25 23:45:56.820 ,6,1,0.,24.0,0.,24.0
1981-08-25 23:46:20.820 ,6,0,0.,24.0,0.,24.0
1981-08-25 23:46:44.820 ,7,1,0.,24.0,0.,24.0
1981-08-25 23:47:08.820 ,7,0,0.,24.0,0.,24.0
1981-08-25 23:47:32.820 ,0,0,,0,,0
1981-08-25 23:47:56.820 ,0,0,,0,,0
1981-08-25 23:48:11.220 ,0,0,0.,24.0,0.,24.0
1981-08-25 23:48:20.820 ,6,1,0.,24.0,0.,24.0
1981-08-25 23:48:44.820 ,6,0,0.,24.0,0.,24.0
1981-08-25 23:49:08.820 ,5,1,0.,24.0,0.,24.0
1981-08-25 23:49:32.820 ,5,0,0.,24.0,0.,24.0
1981-08-25 23:49:56.820 ,4,1,0.,24.0,0.,24.0
1981-08-25 23:50:20.820 ,4,0,0.,24.0,0.,24.0
1981-08-25 23:50:44.820 ,3,1,0.,24.0,0.,24.0
1981-08-25 23:51:08.820 ,3,0,0.,24.0,0.,24.0
1981-08-25 23:51:32.820 ,2,1,0.,24.0,0.,24.0
1981-08-25 23:51:56.820 ,2,0,0.,24.0,0.,24.0
1981-08-25 23:52:20.820 ,1,1,0.,24.0,0.,24.0
1981-08-25 23:52:44.820 ,1,0,0.,24.0,0.,24.0
1981-08-25 23:53:08.820 ,0,1,0.,24.0,0.,24.0
1981-08-25 23:53:32.820 ,0,0,0.,24.0,0.,24.0
1981-08-25 23:53:56.820 ,0,1,0.,24.0,0.,24.0
1981-08-25 23:54:20.820 ,0,0,0.,24.0,0.,24.0
1981-08-25 23:54:44.820 ,1,1,0.,24.0,0.,24.0
1981-08-25 23:55:08.820 ,1,0,0.,24.0,0.,24.0
1981-08-25 23:55:32.820 ,2,1,0.,24.0,0.,24.0
1981-08-25 23:55:56.820 ,2,0,0.,24.0,0.,24.0
1981-08-25 23:56:20.820 ,3,1,0.,24.0,0.,24.0
1981-08-25 23:56:44.820 ,3,0,0.,24.0,0.,24.0
1981-08-25 23:57:08.820 ,4,1,0.,24.0,0.,24.0
1981-08-25 23:57:32.820 ,4,0,0.,24.0,0.,24.0
1981-08-25 23:57:56.820 ,5,1,0.,24.0,0.,24.0
1981-08-25 23:58:20.820 ,5,0,0.,24.0,0.,24.0
1981-08-25 23:58:44.820 ,6,1,0.,24.0,0.,24.0
1981-08-25 23:59:08.820 ,6,0,0.,24.0,0.,24.0
1981-08-25 23:59:32.820 ,7,1,0.,24.0,0.,24.0
1981-08-25 23:59:56.820 ,7,0,0.,24.0,0.,24.0
1981-08-26 00:00:20.820 ,7,1,0.,24.0,0.,24.0
